map of FDH home
FDH - Airport
Location
City:  Friedrichshafen, Baden-Württemberg, Germany
Near (Alt.):Löwenthal
Name:Bodensee Airport Friedrichshafen
Old (Alt.):Löwental Airport
ICAO:EDNY
IATA:FDH

Details
Type:Airport (Flugplatz, Airfield)
Use:Public/Civil, International (customs port of entry)
Latitude:47°40'17"N (47.671317)
Longitude:9°30'41"E (9.511486)
Datum:WGS 1984
Elevation:1367 ft (417 m)
Variation:2.48°E (WMM2015 magnetic declination)
0.12° annual change
Runways:1
Longest:7729 × 148 ft (2356 × 45 m), paved

Time
Time Zone:UTC+1 (DST+2)
Local Time:

Weather
METAR:EDNY 230014Z AUTO 00000KT 1700 BR OVC001 M05/M06 Q1024
TAF:EDNY 222300Z 2300/2324 VRB02KT 2000 BR OVC003
TEMPO 2300/2310 0700 FZFG OVC001
TEMPO 2312/2324 4000 BR OVC005

Related Locations
Nearby:
Farthest:CHT: 12042 mi / 19380 km
Waitangi [Tuuta], CIT, NZ

Find:

   beyond  
but within

Other Information
Maps:
NOTAMs:
Links:
Sources:

  
flag of Germany
flag of Baden-Württemberg
  

Sectional Chart

Flight Planning
at skyvector.com

Satellite Image

Google Maps Satellite view

 

Copyright © 2004-2017 Karl L. Swartz. All rights reserved.
The Great Circle Mapper name and logo are trademarks of the Great Circle Mapper.
All other trademarks mentioned herein belong to their respective owners.
Please see credits for attibutions and further copyright information.

  Follow gcmap on Facebook Follow gcmap on Twitter Follow gcmap on Google+ GCmap on LinkedIn

hCard Microformat

Geo Microformat